Location: Ago
(8.4667°N, 4.4833°E)
Time: 23:43:45
(UTC+00:00)

Milstar 3 Cent rocket - Pass Details

Date: 18 September 2020
Orbit: 708 x 5145 km, 28.3° (Epoch: 20 October)

Event Time Altitude Azimuth Distance (km) Brightness Sun altitude
Rises 19:28:37 0° 278° (W) 4,621 7.3 -27.6°
Reaches altitude 10° 19:33:37 10° 298° (WNW) 2,974 5.8 -28.8°
Maximum altitude 19:37:32 16° 335° (NNW) 2,144 4.6 -29.8°
Enters shadow 19:39:34 13° 1° (N) 2,142 4.3 -30.3°
